Location: Mococo
(38.0255°N, 122.1161°W)
Time: 07:10:25
(UTC+00:00)

Cosmos 2344 - Pass Details

Date: 13 February 2026
Orbit: 1195 x 3047 km, 63.3° (Epoch: 9 March)

Event Time Altitude Azimuth Distance (km) Brightness Sun altitude
Exits shadow 12:10:38 34° 338° (NNW) 2,271 4.7 -34.0°
Maximum altitude 12:15:06 75° 56° (ENE) 1,720 4.2 -33.1°
Drops below altitude 10° 12:26:49 10° 142° (SE) 4,704 6.8 -30.8°
Sets 12:30:54 0° 144° (SE) 5,968 7.4 -30.0°
